Logansport, IN

12:41 PM EDT on September 27, 2016 (GMT -0400)
Logansport Municipal

Weather History for KGGP - May, 2013

Change the Weather History Date:

Friday, May 17, 2013

  Actual Average Record
Temperature  
Mean Temperature 66 °F -  
Max Temperature 78 °F 75 °F 78 °F (2013)
Min Temperature 55 °F 53 °F 35 °F (2014)
Cooling Degree Days 2    
Growing Degree Days 16 (Base 50)    
Moisture  
Dew Point 56 °F    
Average Humidity 72    
Maximum Humidity 100    
Minimum Humidity 46    
Precipitation  
Precipitation 0.43 in - - ()
Sea Level Pressure  
Sea Level Pressure 30.02 in    
Wind  
Wind Speed 5 mph (East)    
Max Wind Speed 20 mph    
Max Gust Speed 23 mph    
Visibility 9 miles    
Events Rain    
Averages and records for this station are not official NWS values.
T = Trace of Precipitation, MM = Missing Value Source: NWS Daily Summary

Daily Weather History Graph

Daily Weather History Graph

Search for Another Location

Airport or City:

Trip Planner

Search our weather history database for the weather conditions in past years. The results will help you decide how hot, cold, wet, or windy it might be!

Date:

Astronomy

May. 17, 2013 Rise Set
Actual Time 6:26 AM EDT 8:57 PM EDT
Civil Twilight 5:55 AM EDT 9:29 PM EDT
Nautical Twilight 5:16 AM EDT 10:08 PM EDT
Astronomical Twilight 4:32 AM EDT 10:52 PM EDT
Moon 12:59 PM EDT (5/17) 1:49 AM EDT (5/17)
Length of Visible Light 15h 34m
Length of Day
14h 31m
Waxing Crescent, 45% of the Moon is Illuminated
May 17
Waxing Crescent
May 18
First Quarter
May 25
Full
May 31
Last Quarter
Jun 8
New

Hourly Weather History & Observations

Time (EDT) Temp. Dew Point Humidity Pressure Visibility Wind Dir Wind Speed Gust Speed Precip Events Conditions
12:15 AM 62.6 °F 48.2 °F 59% 29.97 in 10.0 mi Calm Calm - N/A   Mostly Cloudy
12:35 AM 62.6 °F 50.0 °F 63% 29.98 in 10.0 mi Calm Calm - N/A   Overcast
12:55 AM 64.4 °F 50.0 °F 59% 29.98 in 10.0 mi NNE 5.8 mph - N/A   Overcast
1:15 AM 62.6 °F 51.8 °F 68% 29.99 in 10.0 mi SSW 4.6 mph - N/A   Overcast
1:35 AM 64.4 °F 48.2 °F 56% 29.99 in 10.0 mi South 3.5 mph - N/A   Overcast
1:55 AM 64.4 °F 46.4 °F 52% 29.99 in 10.0 mi ESE 4.6 mph - N/A   Scattered Clouds
2:15 AM 66.2 °F 44.6 °F 46% 29.99 in 10.0 mi ENE 3.5 mph - N/A   Scattered Clouds
2:35 AM 62.6 °F 46.4 °F 55% 29.98 in 10.0 mi SE 3.5 mph - N/A   Scattered Clouds
2:55 AM 62.6 °F 46.4 °F 55% 29.98 in 10.0 mi Calm Calm - N/A   Clear
3:15 AM 60.8 °F 46.4 °F 59% 29.98 in 10.0 mi South 3.5 mph - N/A   Clear
3:35 AM 60.8 °F 46.4 °F 59% 29.99 in 10.0 mi East 4.6 mph - N/A   Clear
3:55 AM 59.0 °F 46.4 °F 63% 29.99 in 10.0 mi ENE 5.8 mph - N/A   Clear
4:15 AM 59.0 °F 46.4 °F 63% 29.99 in 10.0 mi Calm Calm - N/A   Scattered Clouds
4:35 AM 57.2 °F 48.2 °F 72% 29.99 in 10.0 mi Calm Calm - N/A   Scattered Clouds
4:55 AM 57.2 °F 46.4 °F 67% 29.99 in 10.0 mi Calm Calm - N/A   Scattered Clouds
5:15 AM 59.0 °F 48.2 °F 67% 29.99 in 10.0 mi ESE 4.6 mph - N/A   Mostly Cloudy
5:35 AM 57.2 °F 48.2 °F 72% 29.99 in 10.0 mi ESE 4.6 mph - N/A   Mostly Cloudy
5:55 AM 57.2 °F 50.0 °F 77% 30.00 in 10.0 mi SSE 5.8 mph - N/A   Mostly Cloudy
6:15 AM 57.2 °F 50.0 °F 77% 30.01 in 10.0 mi South 3.5 mph - N/A   Scattered Clouds
6:35 AM 57.2 °F 50.0 °F 77% 30.01 in 10.0 mi Calm Calm - N/A   Clear
6:55 AM 55.4 °F 51.8 °F 88% 30.02 in 10.0 mi South 3.5 mph - N/A   Scattered Clouds
7:15 AM 59.0 °F 53.6 °F 82% 30.02 in 10.0 mi Calm Calm - N/A   Overcast
7:35 AM 60.8 °F 55.4 °F 82% 30.03 in 10.0 mi ENE 3.5 mph - N/A   Scattered Clouds
8:15 AM 62.6 °F 55.4 °F 77% 30.04 in 10.0 mi East 4.6 mph - N/A   Clear
8:35 AM 62.6 °F 57.2 °F 82% 30.04 in 10.0 mi ENE 6.9 mph - N/A   Scattered Clouds
8:55 AM 64.4 °F 57.2 °F 77% 30.04 in 10.0 mi East 5.8 mph - N/A   Mostly Cloudy
9:15 AM 64.4 °F 57.2 °F 77% 30.05 in 7.0 mi East 4.6 mph - N/A   Overcast
9:35 AM 64.4 °F 55.4 °F 73% 30.06 in 10.0 mi ENE 6.9 mph - N/A   Overcast
9:55 AM 64.4 °F 55.4 °F 73% 30.05 in 7.0 mi ENE 6.9 mph - N/A   Mostly Cloudy
10:15 AM 64.4 °F 55.4 °F 73% 30.06 in 10.0 mi ENE 4.6 mph - N/A   Mostly Cloudy
10:35 AM 64.4 °F 55.4 °F 73% 30.05 in 10.0 mi ENE 6.9 mph - N/A   Mostly Cloudy
10:55 AM 64.4 °F 55.4 °F 73% 30.06 in 10.0 mi ENE 4.6 mph - N/A   Mostly Cloudy
11:15 AM 66.2 °F 55.4 °F 68% 30.06 in 10.0 mi ENE 8.1 mph - N/A   Scattered Clouds
11:35 AM 68.0 °F 55.4 °F 64% 30.06 in 10.0 mi East 6.9 mph - N/A   Scattered Clouds
11:55 AM 69.8 °F 57.2 °F 64% 30.06 in 10.0 mi East 5.8 mph - N/A   Clear
12:15 PM 71.6 °F 59.0 °F 64% 30.06 in 10.0 mi ESE 5.8 mph - N/A   Clear
12:35 PM 71.6 °F 59.0 °F 64% 30.05 in 10.0 mi ESE 5.8 mph - N/A   Scattered Clouds
1:15 PM 75.2 °F 60.8 °F 61% 30.04 in 10.0 mi East 9.2 mph - N/A   Scattered Clouds
1:35 PM 77.0 °F 59.0 °F 54% 30.04 in 10.0 mi ENE 8.1 mph - N/A   Scattered Clouds
1:55 PM 77.0 °F 59.0 °F 54% 30.03 in 10.0 mi NE 8.1 mph - N/A   Scattered Clouds
2:15 PM 75.2 °F 59.0 °F 57% 30.03 in 10.0 mi ENE 8.1 mph - N/A   Clear
2:35 PM 77.0 °F 59.0 °F 54% 30.02 in 10.0 mi ENE 8.1 mph - N/A   Clear
3:15 PM 78.8 °F 59.0 °F 51% 30.01 in 10.0 mi ENE 11.5 mph 16.1 mph N/A   Clear
3:35 PM 77.0 °F 59.0 °F 54% 30.00 in 10.0 mi East 9.2 mph - N/A   Clear
3:55 PM 77.0 °F 59.0 °F 54% 30.00 in 10.0 mi NE 4.6 mph - N/A   Scattered Clouds
4:15 PM 75.2 °F 60.8 °F 61% 30.00 in 10.0 mi NE 5.8 mph - N/A Rain Rain
4:35 PM 75.2 °F 59.0 °F 57% 29.99 in 10.0 mi ENE 6.9 mph - N/A   Overcast
4:55 PM 73.4 °F 59.0 °F 61% 29.99 in 7.0 mi East 19.6 mph 23.0 mph N/A   Mostly Cloudy
5:15 PM 73.4 °F 59.0 °F 61% 29.98 in 10.0 mi ENE 12.7 mph - N/A   Mostly Cloudy
5:35 PM 73.4 °F 59.0 °F 61% 29.98 in 10.0 mi East 13.8 mph 17.3 mph N/A   Mostly Cloudy
5:55 PM 71.6 °F 59.0 °F 64% 30.01 in 10.0 mi SE 10.4 mph - N/A   Mostly Cloudy
6:15 PM 69.8 °F 60.8 °F 73% 30.03 in 10.0 mi South 11.5 mph 19.6 mph N/A Rain Rain
6:35 PM 66.2 °F 62.6 °F 88% 30.04 in 2.5 mi South 8.1 mph - 0.15 in Rain Heavy Rain
6:55 PM 62.6 °F 60.8 °F 94% 30.06 in 5.0 mi SSE 12.7 mph - 0.25 in Rain Rain
7:15 PM 62.6 °F 60.8 °F 94% 30.06 in 4.0 mi SE 11.5 mph - 0.07 in Rain Heavy Rain
7:35 PM 62.6 °F 60.8 °F 94% 30.05 in 4.0 mi ESE 9.2 mph - 0.15 in Rain Rain
7:55 PM 62.6 °F 60.8 °F 94% 30.05 in 7.0 mi ESE 9.2 mph - 0.17 in Rain Light Rain
8:15 PM 62.6 °F 60.8 °F 94% 30.05 in 7.0 mi ESE 5.8 mph - N/A Rain Light Rain
8:35 PM 62.6 °F 60.8 °F 94% 30.05 in 7.0 mi East 6.9 mph - 0.01 in   Light Drizzle
8:55 PM 62.6 °F 60.8 °F 94% 30.05 in 7.0 mi East 6.9 mph - 0.01 in   Light Drizzle
9:15 PM 62.6 °F 60.8 °F 94% 30.04 in 10.0 mi East 5.8 mph - N/A   Light Drizzle
9:35 PM 62.6 °F 60.8 °F 94% 30.04 in 10.0 mi ESE 5.8 mph - N/A   Mostly Cloudy
9:55 PM 62.6 °F 60.8 °F 94% 30.05 in 10.0 mi ESE 5.8 mph - N/A   Mostly Cloudy
10:15 PM 62.6 °F 60.8 °F 94% 30.06 in 7.0 mi ESE 6.9 mph - N/A   Scattered Clouds
10:35 PM 62.6 °F 60.8 °F 94% 30.06 in 10.0 mi ESE 8.1 mph - N/A   Clear
10:55 PM 60.8 °F 60.8 °F 100% 30.06 in 7.0 mi East 6.9 mph - N/A   Clear
11:15 PM 62.6 °F 60.8 °F 94% 30.07 in 10.0 mi ENE 4.6 mph - N/A   Clear
11:35 PM 62.6 °F 60.8 °F 94% 30.07 in 7.0 mi ENE 4.6 mph - N/A   Scattered Clouds
11:55 PM 62.6 °F 60.8 °F 94% 30.07 in 7.0 mi East 8.1 mph - N/A   Overcast